Location: Peterborough
(44.3091°N, 78.3197°W)
Time: 00:32:20
(UTC-04:00)

SR - Pass Details

Date: 29 March 2023
Orbit: 581 x 867 km, 66.7° (Epoch: 02 June)

Event Time Altitude Azimuth Distance (km) Brightness Sun altitude
Rises 09:16:27 0° 341° (NNW) 2,810 ? 23.2°
Reaches altitude 10° 09:20:09 10° 15° (NNE) 1,921 ? 23.8°
Maximum altitude 09:21:44 12° 37° (NE) 1,816 ? 24.1°
Drops below altitude 10° 09:23:21 10° 59° (ENE) 1,944 ? 24.4°
Sets 09:27:08 0° 92° (E) 2,893 ? 25.0°
